Location: Baia de Cri?
(46.1667°N, 22.7167°E)
Time: 21:20:33
(UTC+00:00)

Gbstr 26 Del rocket - Pass Details

Date: 15 January 2026
Orbit: 490 x 1217 km, 51.8° (Epoch: 11 February)

Event Time Altitude Azimuth Distance (km) Brightness Sun altitude
Exits shadow 05:06:27 - 248° (WSW) 3,877 6.7 -10.4°
Reaches altitude 10° 05:08:54 10° 250° (WSW) 3,031 6.1 -10.0°
Maximum altitude 05:16:17 76° 336° (NNW) 1,054 4.1 -8.8°
Drops below altitude 10° 05:22:29 10° 63° (ENE) 2,561 6.8 -7.9°
Sets 05:24:48 0° 65° (ENE) 3,394 7.5 -7.5°
